Friday Harbor, WA
on Tuesday, December 25, 2012

Tuesday
Previous Day Next Day
Daily Summary
 ActualAverageRecord
Temperature
Mean Temperature °F °F  
Max Temperature 43°F 43°F 55°F (2005)
Min Temperature 39°F 34°F 30°F (1997)
Degree Days
Heating Degree Days 24    
Moisture
Dew Point 35°F   
Average Humidity 78    
Maximum Humidity 93    
Minimum Humidity 65    
Precipitation
Precipitation 0.11 in in in ()
Wind
Wind Speed 12 mph   
Max Wind Speed 22 mph   
Max Gust Speed 31 mph   
Visibility 10 miles   
Events Rain   
Averages and records for this station are not official NWS values.
Key: T is trace of precipitation, MM is missing value
Source: NWS Daily Summary
Seasonal Weather Averages
Time(PST)TemperatureDew PointHumidity Pressure Visibility Wind DirectionWind SpeedGust SpeedPrecipitationEvents Conditions
12:53 AM 42.1°F 35.1°F 76% 30.01 in 10.0 miles ENE 10.4 mph - N/A   Scattered Clouds
1:53 AM 41.0°F 34.0°F 76% 29.99 in 10.0 miles ENE 6.9 mph - N/A   Mostly Cloudy
2:53 AM 41.0°F 34.0°F 76% 29.94 in 10.0 miles ENE 9.2 mph - N/A   Mostly Cloudy
3:53 AM 41.0°F 33.1°F 73% 29.90 in 10.0 miles ENE 8.1 mph - N/A   Overcast
4:53 AM 39.9°F 32.0°F 73% 29.85 in 10.0 miles ENE 11.5 mph - N/A   Overcast
5:53 AM 41.0°F 30.9°F 67% 29.82 in 10.0 miles ENE 6.9 mph 16.1 mph N/A   Overcast
6:53 AM 41.0°F 30.9°F 67% 29.79 in 10.0 miles East 8.1 mph - N/A   Overcast
7:53 AM 42.1°F 30.9°F 65% 29.76 in 10.0 miles East 12.7 mph 18.4 mph N/A   Overcast
8:53 AM 41.0°F 35.1°F 79% 29.74 in 7.0 miles East 19.6 mph 31.1 mph 0.00 in Rain Light Rain
9:53 AM 39.9°F 35.1°F 83% 29.72 in 8.0 miles East 16.1 mph 24.2 mph 0.00 in Rain Light Rain
10:53 AM 39.9°F 35.1°F 83% 29.70 in 4.0 miles ESE 21.9 mph 27.6 mph 0.04 in Rain Light Rain
11:53 AM 39.0°F 36.0°F 89% 29.67 in 8.0 miles East 16.1 mph 23.0 mph 0.06 in Rain Light Rain
12:53 PM 39.0°F 36.0°F 89% 29.66 in 9.0 miles East 16.1 mph 24.2 mph 0.01 in Rain Light Rain
1:41 PM 39.2°F 37.4°F 93% 29.66 in 10.0 miles East 17.3 mph 31.1 mph 0.00 in Rain Light Rain
1:53 PM 39.9°F 37.0°F 89% 29.66 in 10.0 miles East 17.3 mph 25.3 mph 0.00 in   Overcast
2:39 PM 41.0°F 37.4°F 87% 29.66 in 10.0 miles ESE 17.3 mph 25.3 mph N/A   Overcast
2:53 PM 41.0°F 37.0°F 86% 29.67 in 10.0 miles East 17.3 mph 24.2 mph N/A   Overcast
3:03 PM 41.0°F 37.4°F 87% 29.66 in 10.0 miles East 19.6 mph 25.3 mph N/A   Overcast
3:53 PM 42.1°F 37.0°F 82% 29.65 in 10.0 miles East 16.1 mph 20.7 mph N/A   Overcast
4:53 PM 41.0°F 36.0°F 82% 29.65 in 10.0 miles East 12.7 mph 19.6 mph N/A   Overcast
5:53 PM 42.1°F 36.0°F 79% 29.65 in 10.0 miles East 11.5 mph - N/A   Overcast
6:08 PM 42.8°F 35.6°F 76% 29.65 in 10.0 miles ENE 5.8 mph - N/A   Overcast
6:53 PM 41.0°F 36.0°F 82% 29.65 in 10.0 miles East 5.8 mph - N/A   Overcast
7:53 PM 42.1°F 35.1°F 76% 29.64 in 10.0 miles ENE 9.2 mph - N/A   Overcast
8:53 PM 43.0°F 34.0°F 71% 29.65 in 10.0 miles East 15.0 mph - N/A   Overcast
9:53 PM 43.0°F 33.1°F 68% 29.66 in 10.0 miles East 11.5 mph - N/A   Overcast
10:53 PM 42.1°F 33.1°F 70% 29.68 in 10.0 miles ESE 6.9 mph - N/A   Overcast
11:53 PM 43.0°F 34.0°F 71% 29.68 in 10.0 miles East 12.7 mph - N/A   Overcast
Moon Phase
Dec. 25 Dec. 28 Jan. 04 Jan. 11 Jan. 18
Sunrise:08:03 AM (PST) Moon Rise:02:37 PM (PST)12/25
Sunset:04:21 PM (PST) Moon Set:05:36 AM (PST)12/25

Copyright © 2014 The Weather Underground, Inc.